Guthrie, OK

7:51 PM CST on January 18, 2018 (GMT -0600)
Guthrie Municipal

Weather History for KGOK - November, 2011

Change the Weather History Date:

Tuesday, November 29, 2011

  Actual Average Record
Temperature  
Mean Temperature 42 °F -  
Max Temperature 55 °F 56 °F 83 °F (1949)
Min Temperature 30 °F 32 °F 7 °F (1976)
Degree Days  
Heating Degree Days 22    
Moisture  
Dew Point 26 °F    
Average Humidity 57    
Maximum Humidity 82    
Minimum Humidity 33    
Precipitation  
Precipitation 0.00 in - - ()
Sea Level Pressure  
Sea Level Pressure 30.26 in    
Wind  
Wind Speed 5 mph (NNW)    
Max Wind Speed 14 mph    
Max Gust Speed 22 mph    
Visibility 10 miles    
Events      
Averages and records for this station are not official NWS values.
T = Trace of Precipitation, MM = Missing Value Source: NWS Daily Summary

Daily Weather History Graph

Daily Weather History Graph

Search for Another Location

Airport or City:

Trip Planner

Search our weather history database for the weather conditions in past years. The results will help you decide how hot, cold, wet, or windy it might be!

Date:

Astronomy

Nov. 29, 2011 Rise Set
Actual Time 7:19 AM CST 5:16 PM CST
Civil Twilight 6:51 AM CST 5:44 PM CST
Nautical Twilight 6:19 AM CST 6:15 PM CST
Astronomical Twilight 5:49 AM CST 6:46 PM CST
Moon 11:09 AM CST (11/29) 10:06 PM CST (11/29)
Length of Visible Light 10h 52m
Length of Day
9h 57m
Waxing Crescent, 24% of the Moon is Illuminated
Nov 29
Waxing Crescent
Dec 2
First Quarter
Dec 10
Full
Dec 17
Last Quarter
Dec 24
New

Hourly Weather History & Observations

Time (CST) Temp. Windchill Dew Point Humidity Pressure Visibility Wind Dir Wind Speed Gust Speed Precip Events Conditions
12:53 AM 34.0 °F 31.0 °F 25.0 °F 70% 30.14 in 10.0 mi NNW 3.5 mph - N/A   Clear
1:53 AM 30.9 °F 26.2 °F 26.1 °F 82% 30.17 in 10.0 mi WSW 4.6 mph - N/A   Clear
2:53 AM 34.0 °F 31.0 °F 25.0 °F 70% 30.16 in 10.0 mi NW 3.5 mph - N/A   Clear
3:53 AM 30.9 °F 27.5 °F 25.0 °F 79% 30.18 in 10.0 mi WSW 3.5 mph - N/A   Clear
4:53 AM 34.0 °F - 26.1 °F 73% 30.20 in 10.0 mi North - - N/A   Clear
5:53 AM 35.1 °F - 27.0 °F 72% 30.22 in 10.0 mi North - - N/A   Clear
6:53 AM 36.0 °F 32.1 °F 27.0 °F 70% 30.25 in 10.0 mi North 4.6 mph - N/A   Clear
8:53 AM 41.0 °F 36.4 °F 30.0 °F 65% 30.30 in 10.0 mi North 6.9 mph - N/A   Clear
9:53 AM 45.0 °F 38.5 °F 30.9 °F 58% 30.32 in 10.0 mi NNE 13.8 mph 21.9 mph N/A   Clear
10:53 AM 46.9 °F - 32.0 °F 56% 30.34 in 10.0 mi North 6.9 mph 16.1 mph N/A   Clear
11:53 AM 48.9 °F - 30.9 °F 50% 30.32 in 10.0 mi North 8.1 mph - N/A   Clear
12:53 PM 51.1 °F - 30.9 °F 46% 30.29 in 10.0 mi NNW 9.2 mph 17.3 mph N/A   Clear
1:53 PM 53.1 °F - 27.0 °F 37% 30.27 in 10.0 mi Variable 5.8 mph 16.1 mph N/A   Clear
2:53 PM 55.0 °F - 26.1 °F 33% 30.26 in 10.0 mi North 6.9 mph 17.3 mph N/A   Clear
3:53 PM 53.1 °F - 25.0 °F 34% 30.28 in 10.0 mi Variable 6.9 mph 16.1 mph N/A   Clear
4:53 PM 50.0 °F - 23.0 °F 35% 30.28 in 10.0 mi North 6.9 mph - N/A   Clear
5:53 PM 46.0 °F 44.8 °F 24.1 °F 42% 30.29 in 10.0 mi NNW 3.5 mph - N/A   Clear
6:53 PM 44.1 °F 41.5 °F 24.1 °F 45% 30.30 in 10.0 mi North 4.6 mph - N/A   Clear
7:53 PM 42.1 °F - 23.0 °F 47% 30.31 in 10.0 mi Calm Calm - N/A   Clear
8:53 PM 39.9 °F - 21.9 °F 49% 30.30 in 10.0 mi Calm Calm - N/A   Clear
10:53 PM 33.1 °F - 25.0 °F 72% 30.30 in 10.0 mi Calm Calm - N/A   Clear
11:53 PM 30.0 °F 26.5 °F 24.1 °F 79% 30.30 in 10.0 mi South 3.5 mph - N/A   Clear